SCP
0 0 0 0 0 0 0 0 0 0 0 0 0 0 0 0 0 1 1 1 1 1 1 1 2 2 2 3 3 3 3 3 2 2 2 1 1 1 1 1 1 1 1 1
0 0 0 0 0 0 0 0 0 0 0 0 0 0 0 0 1 1 1 1 1 1 1 1 2 2 2 2 2 2 2 2 2 2 1 1 1 1 1 1 1 1 1 1
0 0 0 0 0 0 0 0 0 0 0 0 0 0 0 0 1 1 1 1 1 1 1 1 1 2 2 2 2 2 2 2 2 2 1 1 1 1 1 1 0 0 0 0
0 0 0 0 0 0 0 0 0 0 0 0 0 0 0 0 1 1 1 1 1 1 1 1 1 1 1 1 1 1 1 1 1 1 1 1 1 1 1 0 0 0 0 0
0 0 0 0 0 0 0 0 0 0 0 0 0 0 0 0 1 1 1 1 1 1 1 1 1 1 1 1 1 1 1 1 1 1 1 1 1 1 0 0 0 0 0 0
0 0 0 0 0 0 0 0 0 0 0 0 0 0 0 0 1 1 1 1 1 1 1 1 1 1 1 1 1 1 1 1 1 1 1 1 0 0 0 0 0 0 0 0
0 0 0 0 0 0 0 0 0 0 0 0 0 0 0 0 1 1 1 1 1 0 0 0 0 0 0 0 0 0 0 0 0 0 0 0 0 0 0 0 0 0 0 0
0 0 0 0 0 0 0 0 0 0 0 0 0 0 0 1 1 1 1 0 0 0 0 0 0 0 0 0 0 0 0 0 0 0 0 0 0 0 0 0 0 0 0 0
0 0 0 0 0 0 0 0 0 0 0 0 0 0 0 1 1 1 0 0 0 0 0 0 0 0 0 0 0 0 0 0 0 0 0 0 0 0 0 0 0 0 0 0
0 0 0 0 0 0 0 0 0 0 0 0 0 0 0 0 0 0 0 0 0 0 0 0 0 0 0 0 0 0 0 0 0 0 0 0 0 0 0 0 0 0 0 0
0 0 0 0 0 0 0 0 0 0 0 0 0 0 0 0 0 0 0 0 0 0 0 0 0 0 0 0 0 0 0 0 0 0 0 0 0 0 0 0 0 0 0 0
0 0 0 0 0 0 0 0 0 0 0 0 0 0 0 0 0 0 0 0 0 0 0 0 0 0 0 0 0 0 0 0 0 0 0 0 0 0 0 0 0 0 0 0
0 0 0 0 0 0 0 0 0 0 0 0 0 0 0 0 0 0 0 0 0 0 0 0 0 0 0 0 0 0 0 0 0 0 0 0 0 0 0 0 0 0 0 0
0 0 0 0 0 0 0 0 0 0 0 0 0 0 0 0 0 0 0 0 0 0 0 0 0 0 0 0 0 0 0 0 0 0 0 0 0 0 0 0 0 0 0 0
0 0 0 0 0 0 0 0 0 0 0 0 0 0 0 0 0 0 0 0 0 0 0 0 0 0 0 0 0 0 0 0 0 0 0 0 0 0 0 0 0 0 0 0
0 0 0 0 0 0 0 0 0 0 0 0 0 0 0 0 0 0 0 0 0 0 0 0 0 0 0 0 0 0 0 0 0 0 0 0 0 0 0 0 0 0 0 0
0 0 0 0 0 0 0 0 0 0 0 0 0 0 0 0 0 0 0 0 0 0 0 0 0 0 0 0 0 0 0 0 0 0 0 0 0 0 0 0 0 0 0 0
0 0 0 0 0 0 0 0 0 0 0 0 0 0 0 0 0 0 0 0 0 0 0 0 0 0 0 0 0 0 0 0 0 0 0 0 0 0 0 0 0 0 0 0
0 0 0 0 0 0 0 0 0 0 0 0 0 0 0 0 0 0 0 0 0 0 0 0 0 0 0 0 0 0 0 0 0 0 0 0 0 0 0 0 0 0 0 0
0 0 0 0 0 0 0 0 0 0 0 0 0 0 0 0 0 0 0 0 0 0 0 0 0 0 0 0 0 0 0 0 0 0 0 0 0 0 0 0 0 0 0 0
0 0 0 0 0 0 0 0 0 0 0 0 0 0 0 0 0 0 0 0 0 0 0 0 0 0 0 0 0 0 0 0 0 0 0 0 0 0 0 0 0 0 0 0
0 0 0 0 0 0 0 0 0 0 0 0 0 0 0 0 0 0 0 0 0 0 0 0 0 0 0 0 0 0 0 0 0 0 0 0 0 0 0 0 0 0 0 0
0 0 0 0 0 0 0 0 0 0 0 0 0 0 0 0 0 0 0 0 0 0 0 0 0 0 0 0 0 0 0 0 0 0 0 0 0 0 0 0 0 0 0 0
0 0 0 0 0 0 0 0 0 0 0 0 0 0 0 0 0 0 0 0 0 0 0 0 0 0 0 0 0 0 0 0 0 0 0 0 0 0 0 0 0 0 0 0
0 0 0 0 0 0 0 0 0 0 0 0 0 0 0 0 0 0 0 0 0 0 0 0 0 0 0 0 0 0 0 0 0 0 0 0 0 0 0 0 0 0 0 0
0 0 0 0 0 0 0 0 0 0 0 0 0 0 0 0 0 0 0 0 0 0 0 0 0 0 0 0 0 0 0 0 0 0 0 0 0 0 0 0 0 0 0 0
Wind_Speed
12 12 11 10 10 11 12 12 12 10 5 5 8 7 7 6 5 5 6 5 6 7 7 9 10 9 9 9 8 7 6 5 4 3 3 3 3 3 3 4 5 5 4 3
13 14 12 9 7 8 10 12 13 10 7 6 8 9 7 6 6 6 7 6 7 7 8 9 10 10 10 9 8 7 6 5 4 2 2 3 4 4 4 5 6 6 5 4
15 9 7 8 8 9 10 11 12 11 9 8 10 11 8 6 5 7 7 8 8 7 8 8 9 10 9 9 8 7 6 6 5 3 3 4 4 4 4 5 5 7 7 6
12 10 6 8 10 10 11 11 11 11 11 9 8 9 7 7 8 7 8 9 8 8 9 9 10 10 10 9 8 8 8 8 6 4 5 6 5 5 5 5 7 8 10 9
11 10 9 10 10 10 11 9 9 10 11 12 9 9 7 6 7 9 9 9 9 10 10 11 11 10 9 9 9 9 10 10 9 7 7 7 7 7 6 7 10 9 9 10
15 12 10 10 9 9 9 10 9 8 8 13 11 9 7 4 9 10 10 10 10 11 11 11 11 10 10 10 9 9 10 10 10 10 10 10 10 10 10 9 9 7 7 8
14 13 10 9 10 10 9 8 6 6 6 10 8 7 1 1 7 13 14 12 11 11 10 10 11 11 10 11 10 9 11 11 11 11 11 11 11 11 11 9 8 8 7 7
10 8 9 9 9 9 9 9 7 6 7 7 5 4 4 9 11 15 15 13 11 11 10 11 11 10 10 10 10 10 11 11 11 12 12 11 10 9 8 9 8 8 7 7
7 4 6 7 8 9 9 8 8 8 10 10 4 2 6 11 11 13 13 12 11 11 11 11 11 10 11 11 11 10 11 12 11 12 12 12 11 11 10 9 9 8 7 7
9 8 7 8 8 10 10 8 6 6 6 7 5 2 2 7 10 10 11 11 11 11 11 11 10 10 10 10 11 11 12 12 12 11 11 11 11 10 10 10 10 9 8 7
7 8 9 7 6 9 8 8 7 6 5 6 5 1 2 8 11 11 11 11 11 11 11 10 10 10 10 10 10 11 11 12 12 12 11 11 10 10 10 9 9 8 7 7
5 6 7 7 8 11 10 7 7 6 7 7 5 2 5 9 12 13 13 12 11 11 10 10 10 10 10 10 10 11 11 11 11 11 10 10 9 9 9 8 7 7 6 6
4 4 5 7 7 8 8 8 7 7 6 5 4 1 6 12 13 13 14 13 11 11 11 10 10 10 10 10 10 10 10 10 10 10 10 9 8 8 8 7 6 6 5 5
3 5 6 6 5 7 8 9 8 6 5 5 2 3 7 12 14 14 13 13 12 11 11 10 10 10 10 10 10 10 10 9 9 10 10 9 7 7 6 6 5 5 6 6
4 7 9 8 7 9 10 9 6 5 5 5 2 4 9 12 14 15 14 14 13 12 11 11 10 10 9 10 9 9 9 8 9 9 9 8 7 6 6 6 6 5 5 7
3 6 10 10 10 10 9 7 4 3 3 2 3 5 10 14 14 14 14 14 13 13 12 12 11 10 10 9 9 9 8 7 7 8 8 7 6 6 6 6 6 5 5 6
5 6 8 9 10 10 4 4 3 3 4 4 3 8 14 15 15 15 15 14 13 13 13 12 11 10 9 9 8 9 8 7 7 7 7 7 6 6 6 7 6 6 6 6
7 6 5 7 8 5 2 3 3 4 7 8 11 14 14 14 13 12 13 14 14 13 13 11 10 9 8 8 8 7 7 7 7 6 6 6 6 7 6 6 6 5 4 4
7 6 5 5 4 2 2 2 2 3 5 8 13 15 15 16 14 9 10 12 12 12 12 10 9 9 8 7 7 7 7 7 7 6 6 6 7 7 6 6 5 4 4 4
7 6 5 6 6 2 0 1 2 4 6 9 12 15 16 14 8 8 12 13 13 12 10 9 8 9 8 7 7 7 6 6 6 6 6 6 6 6 6 5 4 3 3 3
7 7 8 8 4 2 3 3 2 1 5 9 11 13 13 8 7 15 17 14 14 13 12 10 9 8 7 6 6 6 6 6 6 6 6 6 5 5 5 4 3 2 3 3
5 2 3 4 1 3 6 4 6 7 9 11 12 13 13 14 18 19 17 16 15 13 12 10 9 8 7 6 7 7 6 6 6 6 6 5 3 4 5 4 3 2 2 2
2 3 1 2 4 5 8 8 8 10 12 13 14 15 17 18 19 18 17 15 14 13 11 9 10 9 7 6 6 7 6 5 5 5 5 4 4 3 3 3 2 1 1 1
2 2 2 5 8 8 9 10 11 13 14 15 16 17 18 19 19 18 16 14 13 12 11 9 9 9 8 7 7 6 6 5 6 6 5 4 4 3 2 2 2 3 3 3
3 1 3 7 10 10 10 11 13 15 16 17 17 17 18 19 19 17 15 14 12 11 9 9 9 9 9 8 7 7 6 5 5 5 4 4 4 4 4 6 6 6 6 5
2 2 1 5 9 9 12 13 15 15 16 17 17 18 17 17 18 17 14 13 12 11 10 9 9 9 9 8 8 7 6 6 5 4 3 3 3 3 3 5 6 9 7 7
Wind_Direction
225 233 243 243 243 273 297 302 298 292 281 240 246 241 224 190 187 155 136 124 101 80 71 67 61 54 50 42 45 45 48 58 83 115 125 119 117 90 79 71 62 56 57 63
237 234 248 263 272 277 282 282 280 280 272 261 258 254 246 215 189 151 134 119 100 84 69 68 62 54 49 41 40 45 40 43 68 88 116 115 107 91 83 76 65 58 59 62
244 245 225 258 264 265 269 273 280 289 287 258 262 255 238 215 164 132 122 105 96 83 68 69 64 55 50 44 37 36 40 41 55 78 105 108 99 89 77 74 64 49 52 54
249 256 249 250 261 262 268 269 279 281 276 269 258 265 251 212 164 145 126 118 105 90 72 71 67 56 48 43 43 41 46 48 53 71 95 104 101 95 77 75 71 59 52 51
253 248 248 251 258 264 274 291 290 287 285 278 266 265 257 200 176 152 134 114 100 91 79 68 61 58 52 49 47 47 50 52 52 61 77 87 88 89 86 81 74 65 56 53
264 262 255 259 261 264 270 277 282 282 280 271 269 265 250 213 183 152 133 118 107 92 82 74 67 62 55 52 52 55 58 57 57 63 71 81 91 92 90 84 81 72 65 58
249 256 255 251 255 256 251 265 280 289 272 267 293 275 296 30 147 146 133 117 106 94 86 75 65 60 57 54 52 59 64 63 64 69 72 79 84 86 87 88 83 80 71 64
258 255 246 231 237 258 256 255 258 267 272 282 306 286 70 76 99 115 116 114 106 95 85 76 68 65 62 58 58 64 66 66 69 73 74 75 79 82 81 80 83 80 77 74
281 279 259 247 236 252 264 264 267 267 277 283 258 185 109 102 109 118 119 116 107 98 88 81 73 69 67 64 63 68 73 73 74 77 79 77 77 81 84 83 81 81 83 82
278 291 271 256 237 237 252 281 298 283 290 291 288 279 160 149 142 133 125 119 112 104 95 88 81 76 74 73 73 72 76 78 80 81 82 84 81 82 83 83 81 81 80 81
267 278 283 285 284 282 265 246 258 275 288 295 301 339 89 158 150 145 132 120 113 107 101 97 92 89 86 83 82 80 80 81 81 82 82 83 83 84 85 84 83 82 80 79
274 281 285 304 315 308 293 288 280 283 292 299 304 39 66 123 131 133 127 120 116 111 107 104 101 98 95 91 89 87 87 88 88 88 87 86 85 85 85 85 83 85 85 83
320 301 301 315 335 326 305 292 291 287 290 297 302 101 110 118 123 130 133 131 126 121 116 111 106 101 99 98 97 95 95 96 98 98 96 93 90 88 88 87 85 83 82 81
285 276 277 274 264 265 270 279 286 285 289 302 284 153 148 138 137 139 139 136 131 128 123 117 110 106 104 105 106 106 105 105 105 102 100 95 90 90 91 90 87 85 83 78
275 276 285 282 263 253 262 267 274 286 305 317 338 153 163 153 150 147 143 140 137 134 130 125 121 117 114 111 110 110 109 109 110 108 103 101 101 99 95 91 87 86 87 86
276 288 296 293 283 273 275 283 299 304 308 318 97 101 132 133 136 142 145 145 143 140 137 131 126 123 121 119 116 114 110 111 111 110 110 111 110 106 102 98 93 89 83 81
260 276 294 296 298 289 286 331 330 344 9 6 49 116 131 136 145 151 152 150 147 143 138 133 131 128 127 125 123 122 121 118 112 110 111 111 108 104 100 100 96 90 86 84
254 276 284 290 302 290 5 359 40 56 50 66 101 124 134 136 136 140 150 149 145 142 137 134 133 130 127 128 127 127 127 123 120 114 109 109 104 100 96 94 94 94 92 92
238 256 278 286 283 291 337 310 41 83 86 98 115 120 121 122 118 123 138 140 140 140 136 132 131 129 132 136 137 134 126 123 118 108 102 101 103 102 100 98 97 97 101 105
216 223 249 273 290 306 276 21 33 104 99 103 121 130 136 145 144 147 145 139 134 132 131 132 133 130 134 139 136 129 126 121 112 107 103 101 101 100 98 96 99 102 106 109
219 224 238 261 275 48 349 330 313 18 116 128 134 140 150 156 120 134 140 137 135 134 135 136 135 133 135 137 130 124 119 113 109 107 107 107 104 104 103 100 102 109 99 95
246 254 299 311 360 84 352 9 55 94 114 119 123 126 122 111 115 128 134 136 137 138 139 137 135 132 132 132 129 122 117 116 112 110 109 110 112 113 111 108 103 105 118 124
267 80 88 50 87 87 63 77 98 110 112 116 118 119 120 122 127 131 133 135 139 141 140 138 136 134 136 135 130 127 127 124 119 116 113 107 101 96 112 124 122 123 129 144
28 71 125 116 106 100 94 94 98 105 112 115 118 123 126 127 130 131 133 136 139 140 139 138 138 135 132 131 129 127 127 127 126 123 120 121 118 110 99 80 74 60 43 41
309 255 122 114 121 114 104 103 106 108 112 115 119 124 127 130 132 134 135 136 138 139 139 142 140 136 136 136 133 130 126 126 126 127 131 129 112 100 85 74 54 60 56 50
310 332 34 112 140 129 121 118 119 121 121 121 122 123 128 131 133 135 135 137 140 141 143 141 139 138 139 138 135 134 135 136 139 146 153 145 142 141 127 117 97 61 79 81